CW7500 Weather Reports


Display with metric or nautical units.
time (UTC)temp
F
wind
direction
speed
MPH
gust
MPH
rain 1hr
in
rain 24hr
in
rain mn
in
humidity
%
barometer
mb
20260906231006 62 254 1.0 3.0 0.00 0.55 0.53 74 1013.4
20260906230507 62 291 1.0 2.0 0.00 0.55 0.53 77 1013.4
20260906230006 62 252 0.0 1.0 0.00 0.55 0.53 80 1013.4
20260906225506 63 266 0.0 2.0 0.00 0.55 0.53 79 1013.4
20260906225006 63 261 1.0 3.0 0.00 0.55 0.53 78 1013.5
20260906224506 63 263 1.0 5.0 0.00 0.55 0.53 76 1013.3
20260906224006 63 310 0.0 1.0 0.00 0.55 0.53 81 1013.3
20260906223506 63 256 1.0 1.0 0.00 0.55 0.53 84 1013.2
20260906223007 64 247 0.0 1.0 0.00 0.55 0.53 83 1013.1
20260906222506 64 248 0.0 2.0 0.00 0.55 0.53 82 1013.0
20260906221506 65 275 1.0 5.0 0.00 0.55 0.53 76 1013.0
20260906221006 64 300 0.0 1.0 0.00 0.55 0.53 77 1013.0
20260906220506 65 228 0.0 5.0 0.00 0.55 0.53 82 1012.9
20260906220006 65 270 0.0 2.0 0.00 0.55 0.53 77 1012.9
20260906215006 65 297 0.0 1.0 0.00 0.55 0.53 74 1012.9
20260906214506 66 275 1.0 3.0 0.00 0.55 0.53 73 1012.9
20260906214007 66 35 1.0 3.0 0.00 0.55 0.53 70 1012.9
20260906213506 66 242 0.0 1.0 0.00 0.55 0.53 75 1012.9
20260906213006 66 347 0.0 0.0 0.00 0.55 0.53 74 1012.9
20260906212506 66 41 0.0 1.0 0.00 0.55 0.53 75 1012.9
20260906212006 66 96 0.0 1.0 0.00 0.55 0.53 74 1012.9
20260906211506 66 52 0.0 1.0 0.00 0.55 0.53 74 1012.9
20260906211006 67 61 1.0 2.0 0.00 0.55 0.53 72 1012.9
20260906210506 67 205 0.0 1.0 0.00 0.55 0.53 69 1012.7
20260906210006 67 229 1.0 2.0 0.00 0.55 0.53 72 1012.7
20260906205506 67 335 1.0 3.0 0.00 0.55 0.53 68 1012.7
20260906205006 68 233 0.0 1.0 0.00 0.55 0.53 74 1012.7
20260906204006 68 349 1.0 2.0 0.00 0.55 0.53 68 1012.8
20260906203506 68 53 1.0 3.0 0.00 0.55 0.53 67 1012.7
20260906203006 68 144 1.0 2.0 0.00 0.55 0.53 66 1012.7
20260906202006 68 206 0.0 2.0 0.00 0.55 0.53 74 1012.7
20260906201507 69 216 0.0 2.0 0.00 0.55 0.53 68 1012.7
20260906201006 69 314 1.0 2.0 0.00 0.55 0.53 66 1012.8
20260906200506 68 322 1.0 2.0 0.00 0.55 0.53 73 1012.8
20260906200006 68 263 1.0 3.0 0.00 0.55 0.53 69 1012.7
20260906195506 67 87 1.0 2.0 0.00 0.55 0.53 72 1012.9
20260906195006 67 209 0.0 1.0 0.00 0.55 0.53 79 1012.9
20260906194505 67 261 0.0 1.0 0.00 0.55 0.53 73 1012.9
20260906194006 67 299 2.0 3.0 0.00 0.55 0.53 69 1012.9
20260906193506 67 237 0.0 1.0 0.00 0.55 0.53 74 1012.9
20260906193005 66 351 1.0 1.0 0.00 0.55 0.53 73 1013.0
20260906192506 66 247 0.0 1.0 0.00 0.55 0.53 73 1012.9
20260906192005 65 27 1.0 2.0 0.00 0.55 0.53 74 1012.9
20260906191506 66 210 1.0 2.0 0.00 0.55 0.53 79 1013.0
20260906191006 66 258 0.0 2.0 0.00 0.55 0.53 78 1013.0
20260906190505 65 278 1.0 2.0 0.00 0.55 0.53 74 1013.0
20260906190006 65 240 0.0 2.0 0.00 0.55 0.53 74 1013.0
20260906185006 64 320 0.0 1.0 0.04 0.55 0.53 81 1013.3
20260906184506 63 217 0.0 1.0 0.07 0.55 0.53 87 1013.3
20260906184005 64 222 0.0 2.0 0.07 0.55 0.53 84 1013.3
20260906183506 65 224 1.0 3.0 0.07 0.55 0.53 78 1013.4
20260906182505 63 38 1.0 3.0 0.07 0.55 0.53 85 1013.5
20260906182006 62 256 0.0 1.0 0.07 0.55 0.53 91 1013.5
20260906181506 61 244 0.0 2.0 0.07 0.55 0.53 96 1013.6
20260906181006 61 337 1.0 2.0 0.07 0.55 0.53 93 1013.5
20260906175506 62 175 1.0 3.0 0.06 0.53 0.51 89 1013.8
20260906174505 64 340 3.0 6.0 0.00 0.47 0.45 81 1013.7
20260906174006 66 35 3.0 7.0 0.00 0.47 0.45 77 1013.6
20260906173505 68 21 1.0 3.0 0.00 0.47 0.45 68 1013.5
20260906173006 69 107 1.0 3.0 0.00 0.47 0.45 65 1013.5
20260906172006 68 129 1.0 2.0 0.00 0.47 0.45 70 1013.5
20260906171005 67 46 0.0 2.0 0.00 0.47 0.45 73 1013.7
20260906170506 65 195 1.0 2.0 0.00 0.47 0.45 80 1013.7
20260906165505 65 151 2.0 6.0 0.00 0.47 0.45 74 1013.8
20260906165006 65 187 0.0 3.0 0.00 0.47 0.45 76 1013.8
20260906164505 65 276 1.0 2.0 0.00 0.47 0.45 75 1013.8
20260906164005 66 236 1.0 3.0 0.00 0.47 0.45 72 1013.8
20260906163505 66 170 1.0 3.0 0.00 0.47 0.45 71 1013.9
20260906162005 66 260 1.0 6.0 0.00 0.47 0.45 74 1014.0
20260906161506 66 245 2.0 6.0 0.00 0.47 0.45 76 1013.9
20260906161005 65 249 1.0 5.0 0.00 0.47 0.45 80 1013.9
20260906160505 63 287 1.0 2.0 0.00 0.47 0.45 80 1014.2
20260906160006 63 62 1.0 2.0 0.00 0.47 0.45 83 1014.2
20260906155505 63 352 1.0 3.0 0.00 0.47 0.45 82 1014.2
20260906155006 62 8 1.0 5.0 0.00 0.47 0.45 86 1014.3
20260906154505 62 49 1.0 5.0 0.00 0.47 0.45 85 1014.3
20260906153505 61 18 1.0 5.0 0.00 0.47 0.45 85 1014.4
20260906153005 61 303 1.0 5.0 0.00 0.47 0.45 86 1014.4
20260906152505 62 298 2.0 5.0 0.00 0.47 0.45 83 1014.4
20260906152005 62 34 1.0 5.0 0.00 0.47 0.45 82 1014.4
20260906151505 63 42 2.0 7.0 0.00 0.47 0.45 79 1014.4
20260906151005 63 18 2.0 6.0 0.00 0.47 0.45 83 1014.5
20260906150505 62 341 1.0 6.0 0.00 0.47 0.45 87 1014.5
20260906150005 63 93 1.0 3.0 0.00 0.47 0.45 84 1014.4
20260906145505 63 13 1.0 5.0 0.00 0.47 0.45 85 1014.4
20260906145005 62 7 1.0 3.0 0.00 0.47 0.45 88 1014.4
20260906144005 62 24 1.0 3.0 0.00 0.47 0.45 85 1014.4
20260906143505 62 20 1.0 2.0 0.00 0.47 0.45 86 1014.5
20260906143005 62 313 0.0 2.0 0.00 0.47 0.45 91 1014.3
20260906142505 61 30 1.0 2.0 0.00 0.47 0.45 92 1014.3
20260906142005 62 122 1.0 3.0 0.00 0.47 0.45 92 1014.3
20260906141505 61 233 1.0 2.0 0.00 0.47 0.45 91 1014.3
20260906141005 61 197 0.0 2.0 0.00 0.47 0.45 97 1014.4
20260906140505 60 270 1.0 2.0 0.00 0.47 0.45 98 1014.3
20260906140005 59 265 1.0 2.0 0.00 0.47 0.45 99 1014.3
20260906135005 59 259 1.0 2.0 0.00 0.47 0.45 98 1014.3
20260906134504 59 333 0.0 1.0 0.00 0.47 0.45 97 1014.4
20260906134005 59 321 0.0 5.0 0.00 0.47 0.45 98 1014.4
20260906133505 59 91 0.0 3.0 0.00 0.47 0.45 100 1014.4
20260906133005 59 296 2.0 5.0 0.00 0.47 0.45 98 1014.3
20260906132504 59 259 1.0 3.0 0.00 0.47 0.45 99 1014.3
20260906132005 59 108 1.0 5.0 0.00 0.47 0.45 99 1014.3
20260906131505 59 84 0.0 2.0 0.00 0.47 0.45 98 1014.5
20260906131005 59 342 0.0 2.0 0.00 0.47 0.45 100 1014.3
20260906130504 59 278 1.0 3.0 0.00 0.47 0.45 100 1014.2
20260906130005 59 88 0.0 2.0 0.00 0.47 0.45 100 1014.2
20260906125005 58 180 1.0 2.0 0.00 0.47 0.45 100 1014.4
20260906124505 58 236 0.0 2.0 0.00 0.47 0.45 100 1014.3
20260906124004 58 239 1.0 3.0 0.00 0.47 0.45 100 1014.3
20260906123505 58 227 1.0 3.0 0.00 0.47 0.45 100 1014.0
20260906123004 58 88 1.0 3.0 0.00 0.47 0.45 100 1013.9
20260906122505 58 258 1.0 2.0 0.00 0.47 0.45 100 1013.9
20260906122004 58 34 1.0 3.0 0.00 0.47 0.45 100 1013.9
20260906121505 58 228 0.0 2.0 0.00 0.47 0.45 100 1013.9
20260906120505 58 270 1.0 6.0 0.00 0.47 0.45 100 1014.0
20260906115505 57 242 0.0 1.0 0.00 0.47 0.45 100 1013.9
20260906115005 57 261 0.0 2.0 0.00 0.47 0.45 100 1013.9
20260906114004 57 261 0.0 2.0 0.00 0.47 0.45 100 1013.7
20260906113505 57 283 0.0 1.0 0.00 0.47 0.45 100 1013.7
20260906112504 57 286 1.0 2.0 0.00 0.47 0.45 100 1013.6
20260906112005 57 317 0.0 1.0 0.00 0.47 0.45 100 1013.6
20260906111505 56 271 0.0 1.0 0.00 0.47 0.45 100 1013.4
20260906111005 56 292 0.0 2.0 0.00 0.47 0.45 100 1013.3
20260906110504 56 275 1.0 2.0 0.00 0.47 0.45 100 1013.3
20260906110005 56 262 0.0 0.0 0.00 0.47 0.45 100 1013.2
20260906105504 56 228 0.0 0.0 0.00 0.47 0.45 100 1013.0
20260906105005 56 233 0.0 0.0 0.02 0.47 0.45 100 1013.0
20260906104504 56 246 1.0 1.0 0.04 0.47 0.45 100 1013.0
20260906104004 56 254 0.0 0.0 0.06 0.47 0.45 100 1013.1
20260906103004 56 264 0.0 1.0 0.10 0.47 0.45 100 1013.0
20260906102505 56 287 0.0 1.0 0.12 0.47 0.45 100 1012.9
20260906102004 56 47 0.0 1.0 0.16 0.47 0.45 100 1012.6
20260906101504 56 171 0.0 0.0 0.18 0.47 0.45 100 1012.6
20260906101005 56 99 0.0 1.0 0.24 0.47 0.45 100 1012.7
20260906100505 56 100 1.0 2.0 0.30 0.47 0.45 100 1012.8
20260906100004 56 94 1.0 2.0 0.33 0.47 0.45 100 1012.8
20260906095504 56 108 1.0 2.0 0.37 0.47 0.45 100 1012.7
20260906095004 56 38 1.0 5.0 0.37 0.45 0.43 100 1012.7
20260906094004 56 37 1.0 3.0 0.37 0.41 0.39 100 1012.6
20260906091004 57 9 2.0 7.0 0.20 0.24 0.22 100 1012.5
20260906090504 57 59 3.0 8.0 0.14 0.18 0.16 100 1012.4
20260906090004 57 42 1.0 5.0 0.10 0.14 0.12 99 1012.2
20260906085504 57 305 1.0 5.0 0.06 0.10 0.08 99 1012.1
20260906085005 58 46 2.0 6.0 0.04 0.08 0.06 97 1012.0
20260906084504 58 344 4.0 7.0 0.02 0.06 0.04 98 1012.0
20260906084004 59 76 1.0 3.0 0.00 0.04 0.02 100 1012.0
20260906083504 59 356 1.0 3.0 0.00 0.04 0.02 100 1011.8
20260906082504 59 245 0.0 2.0 0.00 0.04 0.02 100 1012.0
20260906082004 59 264 0.0 2.0 0.00 0.04 0.02 100 1011.8
20260906081504 59 296 1.0 2.0 0.00 0.04 0.02 100 1011.7
20260906081004 59 257 1.0 2.0 0.00 0.04 0.02 100 1011.7
20260906080504 59 288 1.0 2.0 0.00 0.04 0.02 100 1011.6
20260906080004 59 317 0.0 2.0 0.00 0.04 0.02 100 1011.6
20260906075004 59 86 1.0 2.0 0.02 0.04 0.02 100 1011.4
20260906073504 59 349 1.0 1.0 0.02 0.04 0.02 100 1011.5
20260906073004 59 24 0.0 1.0 0.02 0.04 0.02 100 1011.4
20260906072004 59 30 0.0 1.0 0.02 0.04 0.02 100 1011.4
20260906071504 59 34 1.0 2.0 0.02 0.04 0.02 100 1011.4
20260906071004 60 295 0.0 2.0 0.02 0.04 0.02 100 1011.4
20260906070004 60 253 0.0 1.0 0.02 0.04 0.02 100 1011.5
20260906065003 60 300 1.0 2.0 0.00 0.02 0.00 100 1011.4
20260906064504 60 333 0.0 1.0 0.00 0.02 0.00 100 1011.4
20260906064004 60 280 0.0 1.0 0.00 0.02 0.00 100 1011.4
20260906063503 60 332 1.0 2.0 0.00 0.02 0.00 100 1011.6
20260906063004 60 312 1.0 2.0 0.00 0.02 0.00 100 1011.7
20260906062504 60 257 1.0 2.0 0.00 0.02 0.00 100 1011.6
20260906062003 60 270 1.0 3.0 0.00 0.02 0.00 100 1011.6
20260906061504 60 318 1.0 2.0 0.00 0.02 0.00 100 1011.6
20260906061004 60 262 0.0 1.0 0.00 0.02 0.00 100 1011.6
20260906060503 60 264 0.0 1.0 0.00 0.02 0.00 100 1011.4
20260906060004 60 271 0.0 1.0 0.00 0.02 0.00 100 1011.5
20260906055503 60 283 0.0 1.0 0.00 0.02 0.00 100 1011.5
20260906055003 60 244 0.0 2.0 0.00 0.02 0.00 100 1011.5
20260906054504 60 316 0.0 1.0 0.00 0.02 0.00 100 1011.5
20260906054004 60 255 0.0 1.0 0.00 0.02 0.00 100 1011.5
20260906053504 60 292 0.0 1.0 0.00 0.02 0.00 100 1011.6
20260906052504 60 308 1.0 1.0 0.00 0.02 0.00 100 1011.6
20260906052004 60 275 0.0 1.0 0.00 0.02 0.00 100 1011.7
20260906051503 60 275 0.0 1.0 0.00 0.02 0.00 100 1011.7
20260906051004 60 262 1.0 2.0 0.00 0.02 0.00 100 1011.7
20260906050503 60 290 1.0 1.0 0.00 0.02 0.00 100 1011.9
20260906050024 60 260 0.0 2.0 0.00 0.02 0.00 100 1011.9
20260906045523 60 268 1.0 2.0 0.00 0.02 0.00 100 1011.8
20260906045024 60 247 0.0 2.0 0.00 0.02 0.00 100 1011.8
20260906044523 60 264 0.0 2.0 0.00 0.02 0.00 100 1011.8
20260906044023 60 247 1.0 3.0 0.00 0.02 0.00 100 1011.8
20260906043023 60 289 1.0 3.0 0.00 0.02 0.00 100 1011.7
20260906042524 60 245 0.0 3.0 0.00 0.02 0.00 100 1011.7
20260906042023 60 149 2.0 3.0 0.00 0.02 0.00 100 1011.7
20260906041523 60 281 1.0 2.0 0.00 0.02 0.00 100 1011.7
20260906041023 60 246 0.0 2.0 0.00 0.02 0.00 100 1011.6
20260906040523 60 321 0.0 2.0 0.00 0.02 0.00 100 1011.7
20260906040023 60 325 0.0 1.0 0.00 0.02 0.00 100 1011.7
20260906035524 61 259 0.0 0.0 0.00 0.02 0.02 100 1011.6
20260906035023 61 244 0.0 1.0 0.00 0.02 0.02 100 1011.5
20260906034524 61 249 0.0 1.0 0.00 0.02 0.02 100 1011.5
20260906034023 61 210 0.0 1.0 0.00 0.02 0.02 100 1011.4
20260906033523 61 230 0.0 0.0 0.00 0.02 0.02 100 1011.4
20260906033024 61 293 0.0 2.0 0.00 0.02 0.02 100 1011.4
20260906032523 61 251 0.0 1.0 0.00 0.02 0.02 100 1011.3
20260906032023 61 242 0.0 2.0 0.00 0.02 0.02 100 1011.4
20260906031524 61 253 0.0 2.0 0.00 0.02 0.02 100 1011.5
20260906030523 61 247 0.0 1.0 0.00 0.02 0.02 100 1011.4
20260906025023 61 227 0.0 1.0 0.00 0.02 0.02 100 1011.4
20260906024523 61 264 0.0 1.0 0.00 0.02 0.02 100 1011.4
20260906024023 61 248 0.0 1.0 0.00 0.02 0.02 100 1011.5
20260906023523 61 257 1.0 2.0 0.00 0.02 0.02 100 1011.5
20260906023023 61 227 0.0 0.0 0.00 0.02 0.02 100 1011.4
20260906022523 61 23 1.0 2.0 0.00 0.02 0.02 100 1011.4
20260906022024 61 53 0.0 1.0 0.00 0.02 0.02 100 1011.4
20260906021523 61 274 0.0 1.0 0.00 0.02 0.02 100 1011.4
20260906021023 61 278 0.0 0.0 0.00 0.02 0.02 100 1011.3
20260906020023 61 225 0.0 0.0 0.00 0.02 0.02 100 1011.2
20260906014523 61 215 0.0 0.0 0.00 0.02 0.02 100 1011.3
20260906014023 61 233 0.0 0.0 0.00 0.02 0.02 100 1011.4
20260906013523 60 227 0.0 0.0 0.00 0.02 0.02 100 1011.4
20260906012523 61 249 0.0 0.0 0.00 0.02 0.02 100 1011.5
20260906012023 61 217 0.0 0.0 0.00 0.02 0.02 100 1011.5
20260906011522 61 249 0.0 0.0 0.00 0.02 0.02 100 1011.4
20260906010023 61 231 1.0 1.0 0.02 0.02 0.02 100 1011.4
20260906005523 61 242 0.0 1.0 0.02 0.02 0.02 100 1011.3
20260906005023 61 231 0.0 0.0 0.02 0.02 0.02 100 1011.3
20260906004523 61 257 0.0 0.0 0.02 0.02 0.02 100 1011.4
20260906004023 61 238 0.0 0.0 0.02 0.02 0.02 100 1011.3
20260906003523 61 216 0.0 0.0 0.02 0.02 0.02 100 1011.3
20260906003023 61 217 0.0 0.0 0.02 0.02 0.02 100 1011.2
20260906002523 61 250 0.0 0.0 0.02 0.02 0.02 100 1011.2
20260906002023 61 239 0.0 0.0 0.02 0.02 0.02 100 1011.2
20260906001523 61 228 0.0 0.0 0.02 0.02 0.02 98 1011.2
20260906001023 61 251 1.0 1.0 0.02 0.02 0.02 98 1011.1
20260906000522 61 243 0.0 0.0 0.02 0.02 0.02 97 1011.1
20260906000023 61 232 0.0 0.0 0.00 0.00 0.00 96 1011.0
20260905235523 61 203 0.0 0.0 0.00 0.00 0.00 95 1010.9
20260905235023 61 208 0.0 0.0 0.00 0.00 0.00 95 1010.8
20260905234522 62 208 0.0 0.0 0.00 0.00 0.00 93 1010.8
20260905234023 62 215 0.0 0.0 0.00 0.00 0.00 91 1010.8
20260905233522 62 215 0.0 0.0 0.00 0.00 0.00 90 1010.8
20260905232523 63 239 0.0 1.0 0.00 0.00 0.00 86 1010.7
20260905232022 63 100 0.0 2.0 0.00 0.00 0.00 85 1010.7
20260905231522 63 41 1.0 1.0 0.00 0.00 0.00 85 1010.6